User: anonymous   Login
Location: Poughquag
(41.6090°N, 73.6820°W)
Time: 18:04:04
(UTC-05:00)
Language:

POLYITAN 1 - Orbit

View from above orbital plane
View from above orbital plane
View from above satellite
View from above satellite

Ground track
Ground track

The orbit data is extracted from the following two-line orbital elements,

1 40042U 14033AJ  23332.41026440  .00011943  00000-0  10243-2 0  9995
2 40042  98.0281 284.9071 0014272  98.5756 261.7083 14.97589872512596
Epoch (UTC): 28 November 2023 09:50:46
Eccentricity: 0.0014272
inclination: 98.0281°
perigee height: 564 km
apogee height: 584 km
right ascension of ascending node: 284.9071°
argument of perigee: 98.5756°
revolutions per day: 14.97589872
mean anomaly at epoch: 261.7083°
orbit number at epoch: 51259

The dashed part of the orbit path shows where the satellite is in the earth's shadow,  

DLR